Location: Pine Mountain Observatory
(43.7910°N, 120.9377°W)
Time: 13:58:40
(UTC-07:00)

Cosmos 1867 - Visible Passes

Search period start: 26 April 2015 00:00
Search period end: 06 May 2015 00:00
Orbit: 777 x 799 km, 65.0° (Epoch: 25 April)

Date Brightness Start Highest point End Pass type
(mag) Time Alt. Az. Time Alt. Az. Time Alt. Az.
26 Apr 5.4 04:34:39 10° SSE 04:39:00 26° ESE 04:43:29 10° ENE visible
27 Apr 5.7 04:03:55 10° SSE 04:07:32 19° ESE 04:11:21 10° ENE visible
28 Apr 6.0 03:33:38 10° SE 03:36:05 14° ESE 03:38:50 10° ENE visible
28 Apr 3.6 05:13:35 10° SSW 05:19:01 90° WNW 05:24:31 10° NE visible
29 Apr 3.8 04:42:32 13° SSW 04:47:25 69° ESE 04:52:52 10° NE visible
30 Apr 4.2 04:12:07 19° S 04:15:51 51° ESE 04:21:08 10° NE visible
01 May 4.6 03:41:37 23° SSE 03:44:19 37° ESE 03:49:20 10° NE visible
02 May 5.0 03:11:04 23° SE 03:12:49 28° ESE 03:17:26 10° NE visible
02 May 4.0 04:51:45 14° WSW 04:56:12 49° NW 05:01:31 10° NNE visible
03 May 5.3 02:40:28 19° ESE 02:41:20 20° ESE 02:45:20 10° ENE visible
03 May 3.7 04:21:08 23° SW 04:24:30 65° NW 04:29:58 10° NNE visible
04 May 5.7 02:09:48 15° ESE 02:09:53 15° ESE 02:12:56 10° ENE visible
04 May 3.5 03:50:28 35° SW 03:52:52 85° NW 03:58:22 10° NNE visible
05 May 3.6 03:19:45 48° S 03:21:15 73° ESE 03:26:43 10° NE visible
05 May 5.1 05:01:04 10° W 05:05:27 24° NW 05:09:46 10° NNE visible
